EHI
0 0 0 0 0 0 0 0 0 2 5 8 8 9 13 17 22 28 30 33 39 48 55 57 54 50 50 51 53 54 57 59 59 58 59 59 58 56 52 48 45 44 42 38
0 0 0 0 0 0 0 0 0 1 5 8 8 9 13 19 26 31 34 37 43 49 53 55 54 51 52 54 55 57 58 58 57 56 55 54 53 51 50 48 43 40 39 37
0 0 0 0 0 0 0 0 0 1 4 6 6 8 14 22 30 36 39 42 46 48 51 52 52 51 53 56 57 57 56 55 54 53 51 49 47 47 49 49 45 41 39 37
0 0 0 0 0 0 0 0 0 1 3 3 3 7 15 23 30 37 41 40 42 44 45 48 50 50 52 53 54 54 52 51 51 49 47 45 45 46 50 51 47 43 40 37
0 0 0 0 0 0 0 0 1 2 3 3 3 6 13 23 29 35 37 35 33 35 37 41 46 49 49 49 49 48 48 47 46 44 41 40 40 43 47 46 43 40 37 34
0 0 0 0 0 0 0 0 1 4 6 7 9 11 16 23 29 32 32 29 28 29 32 36 41 44 46 47 46 43 43 43 42 40 38 37 38 40 41 39 36 34 33 33
0 0 1 2 2 3 3 2 2 6 12 15 17 20 23 26 28 28 28 26 26 29 33 35 37 39 42 44 42 37 37 38 37 36 34 34 36 38 36 33 30 29 32 34
0 1 2 3 4 6 7 6 5 9 14 17 20 23 25 27 26 24 23 23 25 30 33 34 36 38 39 37 35 33 33 33 33 31 29 28 31 34 33 31 29 29 31 32
0 1 2 2 3 5 6 7 7 8 10 13 16 19 21 22 22 20 20 21 23 27 30 32 34 38 39 36 33 32 32 30 27 26 24 23 25 27 30 31 30 28 27 26
0 0 0 0 1 2 3 4 5 5 6 9 12 15 18 20 20 19 18 19 20 23 28 32 35 37 38 37 34 33 32 28 24 22 20 19 20 21 24 27 27 24 22 22
0 0 0 0 0 1 1 2 2 3 4 6 9 13 18 20 21 20 19 19 20 22 27 32 35 36 34 33 31 31 29 25 22 19 16 15 14 13 15 17 16 15 15 16
0 0 1 1 1 1 1 2 2 2 3 5 6 10 16 19 21 22 21 21 21 23 25 28 29 29 28 27 27 28 26 23 20 17 14 12 10 9 8 6 5 5 6 6
0 0 0 0 0 0 0 1 1 3 3 4 5 8 13 17 19 20 20 20 20 20 20 20 20 22 23 24 25 25 22 19 17 14 11 9 7 5 4 2 0 0 1 1
0 0 0 0 0 0 0 0 0 2 3 4 6 9 12 14 15 15 15 15 15 15 14 14 15 18 20 21 22 21 17 14 12 10 8 6 4 3 2 1 0 1 1 0
0 0 0 0 0 0 0 0 0 1 2 4 6 9 10 11 11 11 12 13 14 14 13 14 16 18 19 19 18 17 13 10 9 7 4 4 4 3 1 0 1 2 2 1
0 0 0 0 0 0 0 0 1 1 2 4 7 8 8 8 9 10 12 14 15 16 17 19 19 19 18 17 15 12 9 7 7 4 2 2 3 2 1 0 1 2 2 1
0 0 0 1 1 1 1 1 1 1 3 5 6 6 6 6 8 10 12 13 14 16 18 20 20 18 17 18 15 8 4 3 3 2 1 1 1 1 0 0 0 0 0 1
0 0 1 2 2 2 1 0 0 1 3 5 6 5 4 4 5 7 9 11 11 13 16 17 16 15 15 16 14 8 2 0 0 0 0 0 0 0 0 0 0 0 0 0
0 1 2 2 2 2 1 1 1 2 4 6 7 5 4 2 2 3 6 8 8 9 12 13 12 10 11 11 10 7 4 1 1 0 0 0 1 0 0 0 0 0 0 0
1 2 1 1 1 1 2 2 3 4 5 7 6 4 3 2 1 3 4 4 5 8 10 10 8 7 7 7 5 5 4 3 2 1 0 0 0 0 0 0 0 0 0 0
2 2 1 0 0 1 2 4 4 4 4 4 3 1 1 1 2 3 4 3 5 7 7 6 6 6 6 5 3 3 4 4 2 1 0 0 0 0 0 0 0 0 0 0
1 2 2 1 1 2 2 4 4 3 1 1 1 1 0 1 1 2 2 2 3 4 4 4 4 4 4 3 2 3 3 3 2 1 1 0 0 0 0 0 0 0 0 0
1 2 3 3 2 2 1 2 3 3 2 2 3 2 1 0 0 0 1 1 1 1 3 3 2 1 2 3 3 2 2 2 1 0 0 0 0 0 0 0 0 0 0 0
2 2 2 2 2 1 0 1 2 3 4 4 4 3 1 1 1 1 1 0 0 1 2 2 1 0 1 3 2 1 1 1 0 0 0 0 0 0 0 0 0 0 0 0
1 1 1 1 1 0 0 0 1 2 3 3 2 2 1 2 2 2 2 1 0 0 1 1 0 0 0 1 1 0 0 0 0 0 1 1 1 0 0 0 0 0 0 0
0 0 0 0 0 0 0 0 0 0 1 1 0 0 1 2 2 2 2 1 0 0 0 0 0 0 0 0 0 0 0 0 0 0 1 2 2 1 0 0 0 0 0 0
0 0 0 0 0 0 0 0 0 0 0 0 0 0 0 1 1 1 1 0 0 0 0 0 0 0 0 0 0 0 0 0 0 0 1 2 3 2 1 0 0 0 0 0
Wind_Speed
15 17 15 14 14 13 13 13 13 10 9 7 3 2 3 3 2 2 1 1 2 3 3 2 1 1 3 5 5 6 7 7 7 6 5 5 4 4 4 5 6 5 4 5
15 17 17 16 16 15 15 14 13 12 9 6 3 2 1 3 3 2 1 1 1 2 2 2 1 1 1 3 4 5 5 6 5 5 5 5 5 4 5 4 5 5 5 5
14 15 17 18 15 15 13 12 13 12 7 3 1 1 2 3 2 2 1 1 1 1 1 2 2 1 1 2 3 4 5 5 5 5 5 5 5 4 4 5 5 5 5 5
12 14 18 12 11 11 11 10 10 8 4 3 2 0 3 3 3 3 3 2 2 2 0 1 1 1 0 1 2 3 4 4 4 4 4 4 4 4 5 5 5 5 5 5
11 15 16 13 10 11 10 9 7 6 6 6 2 0 3 3 4 4 3 2 3 2 3 1 0 1 1 1 1 2 3 4 4 4 4 4 5 4 4 4 4 5 5 5
11 14 14 9 7 7 8 7 4 5 5 6 7 4 1 3 2 3 3 3 1 1 1 1 1 1 1 1 1 2 2 3 3 3 4 5 5 4 4 4 4 5 5 5
14 15 12 7 9 7 7 4 7 6 7 7 6 5 4 3 3 3 3 3 2 1 1 0 1 1 1 1 0 1 1 1 2 3 4 4 4 3 3 4 4 4 4 4
11 13 9 8 7 6 5 6 7 6 6 6 6 5 4 4 3 2 1 1 1 1 2 1 0 1 1 1 0 0 0 1 1 2 3 3 3 3 4 4 4 4 4 4
5 4 2 4 5 5 6 6 7 7 7 6 6 5 4 3 3 3 2 0 0 1 1 1 1 0 1 1 1 1 1 1 2 2 2 2 4 4 4 4 4 4 3 3
9 7 7 7 7 6 5 6 8 8 7 7 6 5 4 2 1 1 1 1 2 1 1 1 1 0 0 0 1 2 2 2 2 3 3 3 3 3 3 3 3 2 2 2
10 10 10 8 7 8 7 7 9 8 8 7 6 6 4 2 1 1 1 1 2 2 1 1 1 0 1 1 1 2 2 3 3 3 3 2 2 1 1 1 1 1 1 1
9 8 9 9 9 9 8 8 9 9 8 8 6 6 5 3 2 0 1 1 2 2 2 2 2 1 1 2 2 3 3 3 3 2 2 2 2 1 1 0 1 1 2 2
9 9 11 12 11 11 10 10 9 9 8 8 6 5 5 4 2 2 1 2 2 2 2 2 2 2 1 2 2 3 3 3 2 2 1 1 1 1 1 1 0 1 2 3
8 9 11 12 11 11 11 10 9 10 8 6 5 5 5 4 3 3 2 3 3 2 2 2 3 3 2 2 1 2 3 3 3 2 2 2 2 2 2 2 1 1 2 4
10 11 12 12 11 11 10 9 9 8 7 5 5 5 5 5 4 4 3 3 3 3 3 3 3 3 1 2 2 3 3 3 2 2 2 2 1 2 2 1 1 1 1 2
11 11 11 12 12 10 10 10 8 7 6 5 5 4 5 4 5 5 4 3 3 4 3 2 2 2 2 2 2 3 3 3 3 2 2 1 1 1 1 2 2 2 2 2
11 11 11 11 11 11 10 8 7 7 6 5 5 5 5 4 4 4 4 4 3 3 2 2 3 2 2 2 3 3 3 2 3 3 2 1 1 1 1 1 2 2 1 1
11 11 10 10 9 9 9 7 6 6 6 5 5 4 5 4 4 4 3 3 2 2 2 3 3 2 2 2 2 3 3 3 2 2 1 0 1 1 1 1 2 2 1 1
9 9 8 7 8 7 7 6 6 5 4 4 4 3 3 3 3 3 3 2 2 3 3 2 2 3 3 2 2 2 3 4 3 1 1 1 1 1 1 1 1 2 1 1
6 5 5 5 5 5 4 4 4 3 3 3 3 2 2 3 3 3 2 3 3 3 2 2 2 3 2 1 2 3 3 3 2 1 1 1 1 1 2 1 1 1 1 1
5 5 4 3 3 4 4 3 3 3 3 3 3 3 3 3 3 3 3 3 2 1 2 2 2 2 1 2 3 3 3 2 2 1 1 1 1 1 1 1 1 1 1 1
4 4 4 4 3 3 3 2 2 2 3 2 3 3 3 3 4 3 2 2 2 1 2 2 1 1 2 3 3 3 2 2 1 0 0 1 0 0 1 1 1 1 1 1
3 4 4 4 4 4 3 3 3 2 2 2 2 3 3 2 2 3 3 2 1 0 2 1 2 2 3 3 2 2 1 1 1 1 0 0 0 0 1 1 1 1 1 1
4 4 4 4 4 3 3 4 4 3 2 2 1 1 1 1 2 2 1 0 1 1 1 1 1 0 2 2 1 1 1 1 0 0 0 0 0 0 0 1 1 1 1 2
3 4 4 4 4 3 3 2 2 3 3 2 1 1 1 1 1 2 1 0 0 1 0 1 1 2 2 1 1 1 1 1 1 1 1 0 0 0 0 0 1 1 1 1
3 3 2 2 2 2 2 2 2 2 2 2 2 2 2 1 1 1 1 1 1 0 0 0 1 1 1 1 1 0 1 0 0 0 1 1 1 1 1 1 1 1 1 2
2 2 2 2 2 3 2 2 2 2 2 2 2 2 2 2 2 2 2 1 1 0 0 0 0 1 1 1 1 1 1 2 2 2 2 1 1 1 1 1 1 1 2 2
Wind_Direction
273 277 279 277 271 261 256 260 267 265 253 240 229 208 149 130 128 105 58 77 92 99 100 99 113 205 186 172 176 172 172 183 185 187 186 189 195 197 202 209 220 220 220 225
280 278 279 276 271 269 267 265 264 261 258 249 199 189 167 141 138 128 38 7 75 113 120 128 156 259 218 160 172 166 173 182 180 181 183 187 197 205 203 210 224 226 224 227
276 280 279 268 267 267 267 269 274 269 268 262 266 173 127 116 117 141 162 306 15 71 125 131 156 207 245 189 165 168 173 176 178 178 181 188 203 206 212 214 218 224 225 223
275 275 266 271 287 285 277 277 282 287 291 280 260 200 118 116 113 99 64 18 26 10 31 128 151 175 49 175 162 168 166 173 175 174 182 187 197 208 216 217 219 222 224 225
268 266 263 265 274 286 284 279 306 322 327 321 316 301 108 93 94 99 104 71 36 3 337 5 82 122 130 172 171 168 177 177 173 174 185 195 201 209 217 224 227 224 221 221
256 265 268 282 310 323 299 274 2 351 342 337 332 294 70 73 69 102 104 99 83 330 303 355 36 63 147 173 172 185 188 180 172 179 194 208 212 215 225 225 226 226 222 219
249 258 264 304 327 311 271 327 6 3 3 356 0 6 28 50 61 78 99 112 130 159 149 25 27 88 84 61 256 243 215 189 188 198 209 211 213 216 223 231 231 228 226 223
250 259 267 0 342 346 358 360 356 356 2 0 359 3 17 36 51 65 67 121 142 78 82 63 55 101 127 199 232 200 194 215 224 221 235 225 207 220 228 230 234 231 226 229
280 281 349 338 339 349 345 344 342 340 344 345 336 330 351 15 11 14 40 44 326 75 106 133 110 149 228 225 206 205 203 224 253 262 250 231 225 230 228 221 229 233 226 226
283 276 294 304 317 319 328 330 324 322 320 316 318 321 322 327 351 24 11 357 328 304 262 185 186 223 284 273 262 252 233 246 254 249 240 247 234 225 232 231 229 237 250 253
278 285 295 291 308 317 323 314 304 303 304 304 311 308 307 303 311 26 2 346 329 330 319 283 244 204 281 276 261 261 260 258 256 247 236 224 242 255 231 257 239 232 274 271
287 307 301 305 314 313 308 300 296 296 293 294 295 295 296 293 292 304 305 318 313 300 302 301 284 260 243 259 262 262 263 261 255 247 230 214 191 176 44 224 166 191 234 246
293 302 298 299 299 301 298 296 296 296 291 290 289 283 280 274 263 263 266 283 279 272 279 286 283 271 251 251 262 269 273 271 262 263 245 230 221 202 189 87 100 251 233 231
296 293 286 285 291 292 291 292 294 294 292 290 291 284 273 268 260 248 250 259 268 266 272 278 281 272 270 274 280 278 276 266 248 237 226 237 237 239 231 216 199 243 250 228
280 278 279 283 284 283 284 287 286 281 283 289 294 285 277 271 268 258 251 244 250 254 254 261 273 276 285 278 273 272 273 263 243 250 244 227 231 243 254 243 227 212 217 226
278 277 279 282 282 283 283 281 278 278 280 281 284 282 273 274 271 265 256 249 246 253 259 261 268 273 276 279 285 279 269 264 251 249 256 245 233 240 257 259 251 237 228 212
274 274 276 279 279 278 281 284 282 282 278 276 282 287 279 270 262 255 254 251 252 258 260 259 260 262 261 268 268 272 272 257 230 232 240 244 253 259 267 273 266 255 257 249
273 271 272 278 282 280 277 273 274 281 283 272 269 279 279 278 276 276 272 271 268 282 278 268 271 266 249 247 259 271 273 265 254 245 239 221 268 279 284 287 283 274 246 174
280 274 271 273 278 279 278 275 273 273 273 275 282 283 288 291 289 286 283 282 272 263 263 270 274 264 254 245 273 258 264 265 262 258 221 189 230 259 267 261 280 291 277 220
296 290 281 279 284 284 280 279 281 282 285 286 281 278 272 275 276 276 263 260 264 273 285 297 264 262 267 274 268 260 257 260 258 256 230 226 258 276 272 256 277 296 300 292
320 313 298 287 281 278 276 266 257 266 278 282 283 277 270 277 287 293 284 271 272 296 287 265 256 273 281 302 257 255 254 251 251 246 255 256 269 275 293 303 306 303 305 306
337 337 336 336 326 313 306 290 273 266 265 269 271 278 278 275 279 278 273 276 289 326 272 259 269 349 333 295 269 266 250 257 264 260 272 300 276 266 293 289 282 282 278 273
350 352 352 354 347 329 324 322 316 307 292 281 275 276 279 287 293 283 276 274 264 286 280 339 34 33 346 291 279 281 281 293 296 322 330 320 321 328 304 301 295 283 266 260
360 4 358 351 349 345 345 344 340 333 321 313 296 270 265 269 272 276 285 8 104 188 273 85 109 317 277 266 278 274 280 282 298 1 304 295 293 256 263 295 317 314 313 313
355 352 1 0 353 351 355 348 348 345 326 312 303 304 297 324 320 327 333 42 99 229 240 120 181 245 258 280 269 265 283 309 352 356 7 39 317 250 351 324 312 306 329 338
2 353 1 345 334 320 329 347 6 348 330 343 356 0 13 25 29 22 6 13 41 69 9 74 216 245 276 310 325 15 20 45 25 33 54 30 26 26 31 0 334 357 359 359
339 335 330 338 350 348 346 2 6 1 359 347 346 359 13 26 39 41 31 10 28 23 27 24 339 329 360 17 31 35 37 46 44 36 37 48 47 33 31 31 25 23 10 9